Fremont, MI

1:18 AM EST on November 22, 2017 (GMT -0500)
Fremont

Weather History for KFFX - January, 2014

Change the Weather History Date:

Thursday, January 23, 2014

  Actual Average (KMKG) Record (KMKG)
Temperature  
Mean Temperature 4 °F -  
Max Temperature 13 °F 31 °F 55 °F (1909)
Min Temperature -6 °F 19 °F -13 °F (1948)
Degree Days  
Heating Degree Days 62    
Moisture  
Dew Point 1 °F    
Average Humidity 79    
Maximum Humidity 92    
Minimum Humidity 45    
Precipitation  
Precipitation 0.00 in - - ()
Sea Level Pressure  
Sea Level Pressure 30.27 in    
Wind  
Wind Speed 5 mph (NW)    
Max Wind Speed 12 mph    
Max Gust Speed 16 mph    
Visibility 8 miles    
Events Snow    
Averages and records for this station are not official NWS values.
T = Trace of Precipitation, MM = Missing Value Source: NWS Daily Summary

Daily Weather History Graph

Daily Weather History Graph

Search for Another Location

Airport or City:

Trip Planner

Search our weather history database for the weather conditions in past years. The results will help you decide how hot, cold, wet, or windy it might be!

Date:

Astronomy

Jan. 23, 2014 Rise Set
Actual Time 8:08 AM EST 5:43 PM EST
Civil Twilight 7:37 AM EST 6:14 PM EST
Nautical Twilight 7:02 AM EST 6:49 PM EST
Astronomical Twilight 6:28 AM EST 7:23 PM EST
Moon 12:27 AM EST (1/23) 11:29 AM EST (1/23)
Length of Visible Light 10h 37m
Length of Day
9h 35m
Waning Gibbous, 55% of the Moon is Illuminated
Jan 23
Waning Gibbous
Jan 24
Last Quarter
Jan 30
New
Feb 6
First Quarter
Feb 14
Full

Hourly Weather History & Observations

Time (EST) Temp. Windchill Dew Point Humidity Pressure Visibility Wind Dir Wind Speed Gust Speed Precip Events Conditions
12:10 AM 2.8 °F -4.6 °F 0.3 °F 89% 29.95 in 1.0 mi West 3.5 mph - N/A Snow Light Snow
12:31 AM 0.3 °F -9.5 °F -2.2 °F 89% 29.96 in 0.5 mi WNW 4.6 mph - N/A Snow Heavy Snow
12:51 AM 3.9 °F -8.2 °F 1.8 °F 91% 29.97 in 4.0 mi WNW 6.9 mph - N/A Snow Light Snow
1:11 AM 4.6 °F -6.0 °F 1.2 °F 86% 29.97 in 10.0 mi WNW 5.8 mph - N/A   Mostly Cloudy
1:31 AM 3.0 °F -8.0 °F -0.0 °F 87% 29.98 in 1.2 mi WNW 5.8 mph - N/A Snow Snow
1:51 AM 4.1 °F -5.1 °F 1.9 °F 91% 29.98 in 1.2 mi West 4.6 mph - N/A Snow Light Snow
2:11 AM 4.3 °F -4.9 °F 1.8 °F 89% 29.99 in 2.0 mi West 4.6 mph - N/A Snow Light Snow
2:31 AM 0.1 °F -11.4 °F -2.9 °F 87% 30.00 in 10.0 mi WNW 5.8 mph - N/A Snow Light Snow
2:51 AM -0.8 °F -10.8 °F -3.1 °F 90% 30.01 in 10.0 mi WNW 4.6 mph - N/A   Clear
3:11 AM -0.8 °F -10.8 °F -3.6 °F 88% 30.03 in 10.0 mi West 4.6 mph - N/A   Clear
3:32 AM 0.5 °F -9.3 °F -2.9 °F 85% 30.03 in 10.0 mi WNW 4.6 mph - N/A   Clear
3:52 AM 0.7 °F - -2.0 °F 88% 30.04 in 10.0 mi Calm Calm - N/A   Clear
4:12 AM 0.7 °F - -2.4 °F 87% 30.05 in 10.0 mi Calm Calm - N/A   Clear
4:32 AM 0.3 °F - -2.4 °F 88% 30.05 in 10.0 mi Calm Calm - N/A   Clear
4:52 AM -0.4 °F - -3.1 °F 88% 30.06 in 10.0 mi Calm Calm - N/A   Clear
5:12 AM 0.5 °F - -2.6 °F 87% 30.07 in 10.0 mi Calm Calm - N/A   Clear
5:32 AM -0.0 °F - -2.9 °F 88% 30.09 in 10.0 mi Calm Calm - N/A   Scattered Clouds
5:52 AM -0.8 °F - -4.0 °F 86% 30.10 in 10.0 mi Calm Calm - N/A   Scattered Clouds
6:12 AM -3.8 °F - -7.2 °F 85% 30.12 in 10.0 mi Calm Calm - N/A   Scattered Clouds
6:33 AM -2.9 °F -15.0 °F -6.0 °F 87% 30.13 in 10.0 mi ENE 5.8 mph - N/A   Mostly Cloudy
6:53 AM -2.7 °F - -6.0 °F 86% 30.15 in 7.0 mi Calm Calm - N/A Snow Light Snow
7:13 AM -4.0 °F - -7.8 °F 84% 30.17 in 10.0 mi Calm Calm - N/A   Clear
7:33 AM -6.0 °F -18.6 °F -9.6 °F 84% 30.18 in 10.0 mi North 5.8 mph - N/A   Clear
7:53 AM -1.5 °F -14.7 °F -4.7 °F 86% 30.20 in 10.0 mi North 6.9 mph - N/A   Clear
8:13 AM 0.5 °F -11.0 °F -2.7 °F 86% 30.21 in 10.0 mi North 5.8 mph - N/A   Clear
8:33 AM 0.3 °F -11.2 °F -2.9 °F 86% 30.23 in 10.0 mi North 5.8 mph - N/A   Clear
8:53 AM 1.2 °F -11.5 °F -2.2 °F 86% 30.25 in 10.0 mi North 6.9 mph - N/A   Clear
9:13 AM 2.1 °F -10.4 °F -1.3 °F 86% 30.26 in 10.0 mi North 6.9 mph - N/A   Clear
9:33 AM 1.4 °F -11.3 °F -1.8 °F 86% 30.28 in 10.0 mi North 6.9 mph - N/A   Clear
9:54 AM 3.4 °F -8.9 °F 0.5 °F 88% 30.29 in 10.0 mi North 6.9 mph - N/A   Clear
10:14 AM 5.9 °F -5.8 °F 3.2 °F 89% 30.30 in 10.0 mi NNE 6.9 mph - N/A   Clear
10:34 AM 6.4 °F -6.3 °F 3.4 °F 87% 30.32 in 10.0 mi North 8.1 mph - N/A   Clear
10:54 AM 6.8 °F -6.9 °F 4.1 °F 89% 30.34 in 10.0 mi North 9.2 mph - N/A   Clear
11:14 AM 7.0 °F -4.5 °F 3.9 °F 87% 30.35 in 10.0 mi North 6.9 mph - N/A   Clear
11:34 AM 8.4 °F -3.9 °F 4.3 °F 83% 30.35 in 10.0 mi North 8.1 mph - N/A   Clear
11:54 AM 10.4 °F -3.3 °F 3.0 °F 72% 30.36 in 10.0 mi North 10.4 mph - N/A   Clear
12:15 PM 11.1 °F -1.6 °F 0.7 °F 63% 30.36 in 10.0 mi North 9.2 mph - N/A   Clear
12:35 PM 11.5 °F 0.9 °F -1.3 °F 57% 30.36 in 10.0 mi North 6.9 mph - N/A   Clear
12:55 PM 12.2 °F 0.7 °F -1.3 °F 55% 30.36 in 10.0 mi North 8.1 mph - N/A   Clear
1:15 PM 12.9 °F -0.2 °F -2.0 °F 51% 30.36 in 10.0 mi North 10.4 mph - N/A   Clear
1:35 PM 12.7 °F 1.4 °F -0.8 °F 55% 30.36 in 10.0 mi NNW 8.1 mph - N/A   Clear
1:55 PM 12.7 °F 0.4 °F -0.2 °F 56% 30.37 in 10.0 mi North 9.2 mph - N/A   Clear
2:15 PM 13.5 °F 2.2 °F -1.5 °F 51% 30.37 in 10.0 mi North 8.1 mph - N/A   Clear
2:35 PM 13.3 °F 3.0 °F -1.8 °F 51% 30.37 in 10.0 mi NNW 6.9 mph - N/A   Clear
2:50 PM 13.3 °F 3.0 °F -1.5 °F 52% 30.37 in 10.0 mi NNW 6.9 mph - N/A   Clear
3:10 PM 13.1 °F 0.9 °F -2.0 °F 51% 30.38 in 10.0 mi NNW 9.2 mph - N/A   Clear
3:31 PM 13.6 °F 1.6 °F -3.8 °F 46% 30.38 in - North 9.2 mph - N/A   Unknown
3:51 PM 13.6 °F 2.5 °F -4.0 °F 45% 30.39 in 10.0 mi North 8.1 mph - N/A   Scattered Clouds
4:11 PM 13.1 °F 4.0 °F -3.5 °F 48% 30.40 in 10.0 mi North 5.8 mph - N/A   Scattered Clouds
4:31 PM 12.6 °F 2.2 °F -1.5 °F 54% 30.40 in 10.0 mi North 6.9 mph - N/A   Mostly Cloudy
4:51 PM 11.3 °F 5.1 °F 0.1 °F 61% 30.41 in 10.0 mi NNW 3.5 mph - N/A   Overcast
5:11 PM 12.7 °F 2.4 °F 1.9 °F 62% 30.42 in 7.0 mi NNW 6.9 mph - N/A   Overcast
5:31 PM 11.8 °F 1.3 °F 3.9 °F 71% 30.42 in 10.0 mi NNW 6.9 mph - N/A   Overcast
5:51 PM 12.0 °F 2.7 °F 6.4 °F 78% 30.43 in 2.5 mi WNW 5.8 mph - N/A Snow Light Snow
6:11 PM 11.3 °F 3.3 °F 7.7 °F 85% 30.43 in 5.0 mi WNW 4.6 mph - N/A Snow Light Snow
6:32 PM 11.3 °F 3.3 °F 8.2 °F 87% 30.43 in 2.5 mi WNW 4.6 mph - N/A Snow Light Snow
6:52 PM 11.3 °F 1.9 °F 8.4 °F 88% 30.43 in 2.0 mi West 5.8 mph - N/A Snow Light Snow
7:12 PM 10.2 °F 3.8 °F 7.0 °F 87% 30.43 in 3.0 mi West 3.5 mph - N/A Snow Light Snow
7:32 PM 9.9 °F - 7.3 °F 90% 30.43 in 10.0 mi Calm Calm - N/A   Overcast
7:52 PM 10.2 °F 3.8 °F 7.7 °F 90% 30.44 in 5.0 mi WSW 3.5 mph - N/A Snow Light Snow
8:12 PM 10.4 °F - 7.7 °F 89% 30.43 in 1.8 mi Calm Calm - N/A Snow Light Snow
8:32 PM 10.4 °F 4.0 °F 7.9 °F 90% 30.43 in 2.0 mi SW 3.5 mph - N/A Snow Light Snow
8:52 PM 10.0 °F - 7.7 °F 90% 30.42 in 2.5 mi Calm Calm - N/A Snow Light Snow
9:13 PM 9.3 °F 1.0 °F 7.3 °F 92% 30.42 in 4.0 mi SW 4.6 mph - N/A Snow Light Snow
9:33 PM 10.4 °F 2.2 °F 8.2 °F 91% 30.41 in 2.0 mi SW 4.6 mph - N/A Snow Light Snow
9:53 PM 10.2 °F 2.0 °F 7.9 °F 90% 30.41 in 3.0 mi WSW 4.6 mph - N/A Snow Light Snow
10:13 PM 10.9 °F 2.9 °F 7.9 °F 87% 30.41 in 3.0 mi WSW 4.6 mph - N/A Snow Light Snow
10:33 PM 10.9 °F -2.6 °F 7.3 °F 85% 30.40 in 5.0 mi West 10.4 mph - N/A Snow Light Snow
10:53 PM 10.4 °F -4.1 °F 5.9 °F 82% 30.40 in 5.0 mi West 11.5 mph - N/A Snow Light Snow
11:13 PM 10.0 °F -1.9 °F 4.8 °F 79% 30.40 in 10.0 mi West 8.1 mph - N/A   Overcast
11:33 PM 10.4 °F -0.4 °F 3.2 °F 73% 30.39 in 10.0 mi West 6.9 mph - N/A   Overcast
11:53 PM 9.9 °F -2.2 °F 2.5 °F 72% 30.38 in 10.0 mi West 8.1 mph 16.1 mph N/A   Mostly Cloudy